[Iaude] MPEC B171: 2024 BW3 [a=2.10,e=0.48,i=5.3,H=25.3]
    mpec at marsden.cfa.harvard.edu 
    mpec at marsden.cfa.harvard.edu
       
    Wed Jan 31 03:35:13 EST 2024
    
    
  
M.P.E.C. 2024-B171                             Issued 2024 January 31, 08:33 UT
     The Minor Planet Electronic Circulars contain information on unusual
         minor planets, routine data on comets and natural satellites,
         and occasional editorial announcements.  They are published
    on behalf of Division F of the International Astronomical Union by the
          Minor Planet Center, Smithsonian Astrophysical Observatory,
                          Cambridge, MA 02138, U.S.A.
			  
             Prepared using the Tamkin Foundation Computer Network
                              MPC at CFA.HARVARD.EDU
            URL https://www.minorplanetcenter.net/    ISSN 1523-6714
                                    2024 BW3                                    
Observations:
     K24B03W 1C2024 01 19.21330 08 03 12.81 +27 37 04.1          20.6 GVEB171G96
     K24B03W 1C2024 01 19.21891 08 03 14.88 +27 37 19.1          21.4 GVEB171G96
     K24B03W*1C2024 01 19.23398008 03 20.470+27 38 00.71         21.08GVEB171G96
     K24B03W 1C2024 01 19.23916808 03 22.378+27 38 14.93         21.32GVEB171G96
     K24B03W 1C2024 01 19.24436408 03 24.300+27 38 29.29         20.86GVEB171G96
     K24B03W 1C2024 01 19.24955708 03 26.208+27 38 43.40         21.67GVEB171G96
     K24B03W KC2024 01 19.31787 08 03 51.39 +27 41 48.1          21.1 RVEB171691
     K24B03W KC2024 01 19.35502408 04 05.000+27 43 25.00         21.47GVEB171I52
     K24B03W KC2024 01 19.35760708 04 05.960+27 43 31.60         21.15GVEB171I52
     K24B03W KC2024 01 19.35868 08 04 06.35 +27 43 34.9          20.9 RVEB171691
     K24B03W 1C2024 01 20.11656 08 09 10.87 +28 16 11.3          20.1 VXEB171033
     K24B03W 1C2024 01 20.11934 08 09 11.98 +28 16 18.6          20.2 VXEB171033
     K24B03W KC2024 01 31.31222209 30 55.001+34 22 41.23         20.92GVEB171I52
     K24B03W KC2024 01 31.31609309 30 56.603+34 22 46.24         21.54GVEB171I52
     K24B03W KC2024 01 31.31995709 30 58.147+34 22 50.34         21.35GVEB171I52
Observer details:
033 Karl Schwarzschild Observatory, Tautenburg.  Observers S. Melnikov, C.
    Hogner, F. Ludwig, M. Hartmann, B. Stecklum.  Measurer B. Stecklum.
    1.34-m f/3 Schmidt + CCD.
691 Steward Observatory, Kitt Peak-Spacewatch.  Observer C. Lejoly.  0.9-m f/3
    reflector + CCD.
G96 Mt. Lemmon Survey.  Observer A. R. Gibbs.  Measurers B. Gray, D. Rankin,
    F. C. Shelly, T. Beuden, V. F. Carvajal, D. Fay, J. B. Fazekas, D. C.
    Fuls, A. R. Gibbs, A. D. Grauer, H. Groeller, J. K. Hogan, R. A. Kowalski,
    S. M. Larson, G. J. Leonard, R. L. Seaman, K. W. Wierzchos.  1.5-m
    reflector + 10K CCD.
I52 Steward Observatory, Mt. Lemmon Station.  Observer R. A. Kowalski.
    Measurers E. C. Beshore, D. Fay, J. B. Fazekas, D. C. Fuls, A. R. Gibbs,
    A. D. Grauer, H. Groeller, J. K. Hogan, R. A. Kowalski, S. M. Larson, G.
    J. Leonard, D. Rankin, R. L. Seaman, F. C. Shelly, K. W. Wierzchos.  1.0-m
    prime focus + CCD.
Orbital elements:
2024 BW3                                                 Earth MOID = 0.1051 AU
Epoch 2023 Sept. 13.0 TT = JDT 2460200.5                MPC                     
M 316.13919              (2000.0)            P               Q                  
n   0.32373355     Peri.   15.17805     -0.58488941     -0.80646546             
a   2.1006043      Node   110.69164     +0.73419591     -0.57182762             
e   0.4819365      Incl.    5.31803     +0.34476187     -0.15042155             
P   3.04           H   25.39          G   0.15           U   8                  
Residuals in seconds of arc
240119 G96  0.4+  0.5+    240119 G96  0.2-  0.2-    240120 033  0.6-  0.5+
240119 G96  0.1+  0.1-    240119 691  0.3-  0.0     240120 033  0.3-  0.8+
240119 G96  0.1+  0.1-    240119 I52  0.0   0.1+    240131 I52  0.4-  0.1-
240119 G96  0.1-  0.2-    240119 I52  0.1+  0.0     240131 I52  0.2+  0.3+
240119 G96  0.1-  0.0     240119 691  0.8-  0.3-    240131 I52  0.1+  0.2-
Ephemeris:
2024 BW3                 a,e,i = 2.10, 0.48, 5                   q = 1.0882
Date    TT    R. A. (2000) Decl.     Delta      r    Elong.  Phase     V
2024 01 01    06 36 04.8 +15 08 43   0.1442  1.1262   171.9     7.0    22.0
...
2024 01 16    07 42 49.7 +25 11 44   0.1114  1.0948   175.8     3.8    21.2
...
2024 01 24    08 36 44.0 +30 54 08   0.1064  1.0886   168.1    10.8    21.4
...
2024 01 30    09 21 17.4 +33 55 13   0.1086  1.0889   162.2    16.0    21.6
2024 01 31    09 28 37.4 +34 16 32   0.1095  1.0894   161.4    16.8    21.7
2024 02 01    09 35 51.4 +34 35 12   0.1105  1.0900   160.5    17.5    21.7
...
2024 02 07    10 15 59.4 +35 35 27   0.1189  1.0961   156.4    21.2    22.0
...
2024 02 15    10 57 28.8 +35 07 48   0.1359  1.1107   153.3    23.6    22.4
...
2024 03 01    11 40 17.9 +31 38 21   0.1821  1.1561   153.1    22.8    23.1
A. U. Tomatic                (C) Copyright 2024 MPC           M.P.E.C. 2024-B171
    
    
More information about the Iaude
mailing list